EZY78DH LEPA-EGCC

Flight info

Callsign EZY78DH
Flight time N/A
Altitude 36000
Route DRAGO DCT PAPOS DCT UMURE N863 GIROM DCT AGN DCT SECHE DCT UVELI DCT CNA DCT TUPAR UN861 ANG DCT AKIKI UN867 AVANT UM184 HEMEL T420 ELVOS
Aircraft A320/M-SDE3FGHIRWY/LB1

Departure

Time 2026-05-06 14:54
Airport Palma de Mallorca Airport (LEPA)

Arrival

Time N/A
Airport Manchester Airport (EGCC)
Time Latitude Longitude Altitude Speed Heading
2026-05-06 14:39 39.55102 2.72902 38 ft 0 kts 163°
2026-05-06 14:43 39.55115 2.72897 38 ft 4 kts 159°
2026-05-06 14:43 39.55140 2.72882 35 ft 4 kts 146°
2026-05-06 14:44 39.55157 2.72860 36 ft 4 kts 103°
2026-05-06 14:44 39.55157 2.72842 36 ft 1 kts 58°
2026-05-06 14:44 39.55155 2.72839 35 ft 0 kts 58°
2026-05-06 14:47 39.55156 2.72841 36 ft 2 kts 58°
2026-05-06 14:47 39.55174 2.72879 36 ft 6 kts 58°
2026-05-06 14:47 39.55196 2.72925 37 ft 6 kts 58°
2026-05-06 14:47 39.55232 2.73002 38 ft 15 kts 59°
2026-05-06 14:48 39.55296 2.73134 38 ft 20 kts 59°
2026-05-06 14:48 39.55371 2.73294 38 ft 21 kts 59°
2026-05-06 14:48 39.55443 2.73452 38 ft 14 kts 59°
2026-05-06 14:48 39.55493 2.73568 37 ft 13 kts 81°
2026-05-06 14:49 39.55427 2.73652 38 ft 15 kts 149°
2026-05-06 14:49 39.55315 2.73741 38 ft 21 kts 149°
2026-05-06 14:49 39.55185 2.73843 38 ft 22 kts 148°
2026-05-06 14:49 39.55049 2.73950 38 ft 23 kts 149°
2026-05-06 14:50 39.54908 2.74062 38 ft 24 kts 148°
2026-05-06 14:50 39.54789 2.74109 38 ft 16 kts 211°
2026-05-06 14:50 39.54747 2.74037 38 ft 15 kts 240°
2026-05-06 14:50 39.54697 2.73930 37 ft 16 kts 238°
2026-05-06 14:51 39.54621 2.73772 38 ft 22 kts 238°
2026-05-06 14:51 39.54542 2.73605 38 ft 21 kts 239°
2026-05-06 14:51 39.54468 2.73446 38 ft 20 kts 239°
2026-05-06 14:51 39.54395 2.73293 38 ft 20 kts 238°
2026-05-06 14:52 39.54324 2.73146 38 ft 18 kts 239°
2026-05-06 14:52 39.54255 2.73048 38 ft 11 kts 195°
2026-05-06 14:52 39.54214 2.73102 38 ft 8 kts 101°
2026-05-06 14:52 39.54211 2.73175 38 ft 8 kts 90°
2026-05-06 14:53 39.54211 2.73252 38 ft 9 kts 91°
2026-05-06 14:53 39.54211 2.73344 38 ft 13 kts 71°
2026-05-06 14:53 39.54340 2.73624 38 ft 71 kts 58°
2026-05-06 14:53 39.54718 2.74420 38 ft 133 kts 58°
2026-05-06 14:54 39.55283 2.75607 243 ft 163 kts 58°
2026-05-06 14:54 39.55897 2.76848 995 ft 164 kts 58°
2026-05-06 14:54 39.56362 2.78263 1439 ft 183 kts 86°
2026-05-06 14:54 39.56044 2.79918 1700 ft 204 kts 124°
2026-05-06 14:55 39.54895 2.81133 1978 ft 229 kts 159°
2026-05-06 14:55 39.53248 2.81357 2368 ft 253 kts 190°
2026-05-06 14:55 39.51631 2.80386 3068 ft 263 kts 220°
2026-05-06 14:55 39.50503 2.78507 3881 ft 268 kts 240°
2026-05-06 14:56 39.49623 2.76367 4771 ft 270 kts 246°
2026-05-06 14:56 39.49162 2.74020 5663 ft 271 kts 269°
2026-05-06 14:56 39.49482 2.71635 6621 ft 271 kts 292°
2026-05-06 14:56 39.50462 2.69548 7447 ft 273 kts 304°
2026-05-06 14:57 39.51567 2.67533 8256 ft 276 kts 304°
2026-05-06 14:57 39.52688 2.65506 9091 ft 279 kts 304°
2026-05-06 14:57 39.53863 2.63380 9386 ft 302 kts 304°
2026-05-06 14:57 39.55130 2.61074 9606 ft 325 kts 303°
2026-05-06 14:58 39.56464 2.58638 9757 ft 347 kts 303°
2026-05-06 14:58 39.57900 2.56009 9984 ft 365 kts 303°
2026-05-06 14:58 39.59380 2.53300 10526 ft 371 kts 303°
2026-05-06 14:58 39.60897 2.50520 11156 ft 375 kts 303°
2026-05-06 14:59 39.62395 2.47783 11757 ft 380 kts 303°
2026-05-06 14:59 39.63934 2.44970 12455 ft 383 kts 303°
2026-05-06 14:59 39.65484 2.42133 13093 ft 387 kts 303°
2026-05-06 14:59 39.67039 2.39270 13693 ft 390 kts 303°
2026-05-06 15:00 39.68606 2.36379 14220 ft 394 kts 303°
2026-05-06 15:00 39.70186 2.33459 14745 ft 396 kts 302°
2026-05-06 15:00 39.71777 2.30523 15266 ft 398 kts 302°
2026-05-06 15:00 39.73381 2.27575 15862 ft 397 kts 302°
2026-05-06 15:01 39.74939 2.24721 17150 ft 377 kts 302°
2026-05-06 15:01 39.76422 2.21992 18307 ft 365 kts 301°
2026-05-06 15:01 39.77880 2.19294 18945 ft 364 kts 301°
2026-05-06 15:01 39.79334 2.16588 19507 ft 365 kts 300°
2026-05-06 15:02 39.80789 2.13874 20038 ft 367 kts 300°
2026-05-06 15:02 39.82275 2.11166 20544 ft 370 kts 304°
2026-05-06 15:02 39.84208 2.08885 21020 ft 384 kts 322°
2026-05-06 15:02 39.86701 2.07476 21473 ft 398 kts 338°
2026-05-06 15:03 39.89379 2.06498 21928 ft 401 kts 339°
2026-05-06 15:03 39.92083 2.05545 22381 ft 404 kts 339°
2026-05-06 15:03 39.94778 2.04610 22827 ft 407 kts 339°
2026-05-06 15:03 39.97525 2.03659 23268 ft 410 kts 339°
2026-05-06 15:04 40.00287 2.02700 23660 ft 412 kts 339°
2026-05-06 15:04 40.03075 2.01723 24043 ft 415 kts 338°
2026-05-06 15:04 40.05866 2.00734 24391 ft 417 kts 338°
2026-05-06 15:04 40.08676 1.99733 24750 ft 419 kts 338°
2026-05-06 15:05 40.11505 1.98722 25099 ft 422 kts 338°
2026-05-06 15:05 40.14341 1.97709 25446 ft 424 kts 338°
2026-05-06 15:05 40.17196 1.96688 25788 ft 426 kts 338°
2026-05-06 15:05 40.20061 1.95663 26117 ft 428 kts 338°
2026-05-06 15:06 40.22940 1.94631 26441 ft 430 kts 338°
2026-05-06 15:06 40.25838 1.93591 26798 ft 433 kts 337°
2026-05-06 15:06 40.28747 1.92543 27116 ft 435 kts 337°
2026-05-06 15:06 40.31637 1.91506 27438 ft 437 kts 337°
2026-05-06 15:07 40.34573 1.90447 27788 ft 439 kts 337°
2026-05-06 15:07 40.37528 1.89378 28128 ft 441 kts 336°
2026-05-06 15:07 40.40491 1.88305 28447 ft 443 kts 336°
2026-05-06 15:07 40.43468 1.87229 28756 ft 445 kts 336°
2026-05-06 15:08 40.46457 1.86153 29074 ft 447 kts 336°
2026-05-06 15:08 40.49466 1.85073 29372 ft 449 kts 336°
2026-05-06 15:08 40.51468 1.84353 29562 ft 450 kts 336°
2026-05-06 15:08 40.55523 1.82889 29939 ft 453 kts 336°
2026-05-06 15:09 40.58570 1.81782 30170 ft 455 kts 336°
2026-05-06 15:09 40.61626 1.80669 30402 ft 456 kts 336°
2026-05-06 15:09 40.64689 1.79553 30635 ft 458 kts 336°
2026-05-06 15:09 40.67765 1.78435 30904 ft 458 kts 336°
2026-05-06 15:10 40.70833 1.77323 31249 ft 457 kts 336°
2026-05-06 15:10 40.73895 1.76219 31577 ft 456 kts 336°
2026-05-06 15:10 40.76957 1.75113 31909 ft 455 kts 336°
2026-05-06 15:10 40.80001 1.74008 32240 ft 454 kts 336°
2026-05-06 15:11 40.83044 1.72899 32571 ft 453 kts 336°
2026-05-06 15:11 40.86075 1.71793 32884 ft 452 kts 336°
2026-05-06 15:11 40.89102 1.70689 33195 ft 451 kts 336°
2026-05-06 15:11 40.92119 1.69587 33585 ft 450 kts 336°
2026-05-06 15:12 40.95098 1.68499 33897 ft 449 kts 336°
2026-05-06 15:12 40.98110 1.67395 34163 ft 448 kts 336°
2026-05-06 15:12 41.01152 1.66277 34406 ft 448 kts 336°
2026-05-06 15:12 41.04113 1.65183 34623 ft 448 kts 336°
2026-05-06 15:13 41.07118 1.64072 34846 ft 448 kts 336°
2026-05-06 15:13 41.10128 1.62960 35064 ft 449 kts 336°
2026-05-06 15:13 41.13135 1.61853 35294 ft 449 kts 337°
2026-05-06 15:13 41.16144 1.60750 35502 ft 449 kts 337°
2026-05-06 15:14 41.19153 1.59647 35696 ft 449 kts 337°
2026-05-06 15:14 41.22166 1.58539 35874 ft 449 kts 337°
2026-05-06 15:14 41.25177 1.57433 35930 ft 448 kts 337°
2026-05-06 15:15 41.31165 1.55224 35935 ft 446 kts 337°
2026-05-06 15:15 41.37134 1.53006 35925 ft 445 kts 337°
2026-05-06 15:16 41.43093 1.50786 35926 ft 444 kts 337°
2026-05-06 15:16 41.49047 1.48564 35925 ft 444 kts 337°
2026-05-06 15:17 41.55001 1.46341 35918 ft 444 kts 337°
2026-05-06 15:17 41.60955 1.44118 35927 ft 444 kts 337°
2026-05-06 15:18 41.66865 1.41916 35922 ft 444 kts 337°
2026-05-06 15:18 41.72810 1.39689 35932 ft 444 kts 337°
2026-05-06 15:19 41.78766 1.37448 35968 ft 444 kts 338°
2026-05-06 15:19 41.84708 1.35209 35973 ft 444 kts 338°
2026-05-06 15:20 41.90648 1.32965 35983 ft 444 kts 337°
2026-05-06 15:20 41.96599 1.30718 35981 ft 443 kts 338°
2026-05-06 15:21 42.02497 1.28489 35989 ft 443 kts 338°
2026-05-06 15:21 42.08425 1.26247 35982 ft 443 kts 338°
2026-05-06 15:22 42.14360 1.24002 35955 ft 443 kts 338°
2026-05-06 15:22 42.20291 1.21755 35932 ft 443 kts 338°
2026-05-06 15:23 42.26216 1.19498 35913 ft 443 kts 338°
2026-05-06 15:23 42.32147 1.17229 35910 ft 443 kts 338°
2026-05-06 15:24 42.38078 1.14953 35910 ft 443 kts 338°
2026-05-06 15:24 42.44005 1.12672 35934 ft 443 kts 338°
2026-05-06 15:25 42.49930 1.10391 35932 ft 442 kts 338°
2026-05-06 15:25 42.55852 1.08112 35937 ft 442 kts 339°
2026-05-06 15:26 42.61721 1.05840 35964 ft 442 kts 339°
2026-05-06 15:26 42.67632 1.03547 35957 ft 442 kts 338°
2026-05-06 15:27 42.73547 1.01239 35967 ft 442 kts 338°
2026-05-06 15:27 42.79581 0.99454 35971 ft 449 kts 350°
2026-05-06 15:28 42.85821 0.98781 35974 ft 450 kts 350°
2026-05-06 15:28 42.92059 0.98107 35971 ft 450 kts 350°
2026-05-06 15:29 42.98260 0.97423 35973 ft 450 kts 350°
2026-05-06 15:29 43.04496 0.96728 35996 ft 450 kts 350°
2026-05-06 15:30 43.10736 0.96038 35983 ft 450 kts 350°
2026-05-06 15:30 43.16974 0.95343 35979 ft 450 kts 350°
2026-05-06 15:31 43.23213 0.94648 35989 ft 450 kts 350°
2026-05-06 15:31 43.29452 0.93962 35982 ft 450 kts 351°
2026-05-06 15:32 43.38809 0.92930 35969 ft 449 kts 351°
2026-05-06 15:32 43.45035 0.92245 35983 ft 449 kts 351°
2026-05-06 15:33 43.51229 0.91555 35979 ft 449 kts 351°
2026-05-06 15:33 43.57452 0.90843 35975 ft 448 kts 351°
2026-05-06 15:34 43.63667 0.90137 35981 ft 448 kts 351°
2026-05-06 15:34 43.69884 0.89441 35976 ft 448 kts 351°
2026-05-06 15:35 43.76088 0.88715 35967 ft 447 kts 351°
2026-05-06 15:35 43.82292 0.88004 35963 ft 447 kts 351°
2026-05-06 15:36 43.88433 0.86961 35965 ft 442 kts 342°
2026-05-06 15:36 43.94092 0.83872 35955 ft 436 kts 331°
2026-05-06 15:37 43.99554 0.80337 35949 ft 436 kts 331°
2026-05-06 15:37 44.05062 0.76783 35958 ft 436 kts 332°
2026-05-06 15:38 44.10571 0.73229 35966 ft 436 kts 332°
2026-05-06 15:38 44.16071 0.69670 35962 ft 434 kts 332°
2026-05-06 15:39 44.21499 0.66139 35947 ft 433 kts 332°
2026-05-06 15:39 44.26954 0.62580 35948 ft 433 kts 332°
2026-05-06 15:40 44.32411 0.59017 35946 ft 433 kts 332°
2026-05-06 15:40 44.37870 0.55452 35939 ft 433 kts 332°
2026-05-06 15:41 44.43328 0.51877 35954 ft 433 kts 333°
2026-05-06 15:41 44.48768 0.48276 35947 ft 433 kts 332°
2026-05-06 15:42 44.53295 0.45263 35950 ft 433 kts 332°
2026-05-06 15:42 44.58741 0.41650 35949 ft 433 kts 332°
2026-05-06 15:43 44.64190 0.38027 35953 ft 433 kts 333°
2026-05-06 15:43 44.69623 0.34389 35954 ft 432 kts 333°
2026-05-06 15:44 44.75050 0.30756 35956 ft 432 kts 333°
2026-05-06 15:44 44.80472 0.27131 35952 ft 431 kts 333°
2026-05-06 15:45 44.85885 0.23499 35948 ft 430 kts 333°
2026-05-06 15:45 44.91284 0.19860 35951 ft 430 kts 332°
2026-05-06 15:46 44.96688 0.16210 35946 ft 430 kts 332°
2026-05-06 15:46 45.02058 0.12582 35951 ft 430 kts 333°
2026-05-06 15:47 45.07459 0.08935 35944 ft 430 kts 333°
2026-05-06 15:47 45.12865 0.05280 35940 ft 430 kts 333°
2026-05-06 15:48 45.18269 0.01601 35938 ft 430 kts 333°
2026-05-06 15:48 45.23665 -0.02079 35941 ft 431 kts 333°
2026-05-06 15:49 45.29063 -0.05765 35951 ft 430 kts 333°
2026-05-06 15:49 45.34449 -0.09462 35949 ft 430 kts 333°
2026-05-06 15:50 45.39798 -0.13138 35946 ft 429 kts 333°
2026-05-06 15:50 45.45179 -0.16832 35943 ft 429 kts 333°
2026-05-06 15:51 45.50557 -0.20535 35941 ft 429 kts 333°
2026-05-06 15:51 45.55933 -0.24236 35944 ft 429 kts 333°
2026-05-06 15:52 45.61306 -0.27948 35953 ft 429 kts 333°
2026-05-06 15:52 45.66732 -0.31518 35946 ft 430 kts 340°
2026-05-06 15:53 45.72442 -0.34071 35940 ft 430 kts 341°
2026-05-06 15:53 45.78137 -0.36661 35942 ft 430 kts 341°
2026-05-06 15:54 45.83840 -0.39248 35939 ft 430 kts 341°
2026-05-06 15:54 45.89541 -0.41833 35939 ft 430 kts 341°
2026-05-06 15:55 45.95201 -0.44402 35946 ft 430 kts 341°
2026-05-06 15:55 46.00897 -0.47000 35947 ft 430 kts 341°
2026-05-06 15:56 46.06604 -0.49602 35948 ft 430 kts 341°
2026-05-06 15:56 46.12305 -0.52206 35954 ft 430 kts 341°
2026-05-06 15:57 46.18015 -0.54827 35953 ft 430 kts 341°
2026-05-06 15:57 46.23713 -0.57443 35951 ft 430 kts 341°
2026-05-06 15:58 46.29412 -0.60060 35948 ft 430 kts 341°
2026-05-06 15:58 46.35115 -0.62683 35950 ft 430 kts 341°
2026-05-06 15:59 46.40812 -0.65317 35955 ft 430 kts 341°
2026-05-06 15:59 46.46683 -0.66933 35957 ft 431 kts 352°
2026-05-06 16:00 46.52602 -0.67914 35953 ft 431 kts 352°
2026-05-06 16:00 46.58557 -0.68916 35959 ft 431 kts 352°
2026-05-06 16:01 46.64507 -0.69918 35960 ft 431 kts 352°
2026-05-06 16:01 46.70458 -0.70932 35963 ft 430 kts 352°
2026-05-06 16:02 46.76400 -0.71940 35965 ft 430 kts 352°
2026-05-06 16:02 46.82347 -0.72946 35964 ft 430 kts 352°
2026-05-06 16:03 46.88290 -0.73954 35959 ft 430 kts 352°
2026-05-06 16:03 46.94230 -0.74969 35961 ft 430 kts 352°
2026-05-06 16:04 47.00174 -0.75980 35959 ft 430 kts 352°
2026-05-06 16:04 47.06124 -0.76983 35968 ft 430 kts 352°
2026-05-06 16:05 47.12072 -0.77997 35964 ft 430 kts 352°
2026-05-06 16:05 47.18015 -0.79028 35965 ft 430 kts 352°
2026-05-06 16:06 47.23968 -0.80065 35962 ft 431 kts 352°
2026-05-06 16:06 47.29925 -0.81090 35961 ft 431 kts 352°
2026-05-06 16:07 47.35847 -0.82110 35961 ft 431 kts 352°
2026-05-06 16:07 47.41804 -0.83144 35963 ft 431 kts 352°
2026-05-06 16:08 47.47762 -0.84176 35963 ft 431 kts 352°
2026-05-06 16:08 47.53724 -0.85219 35957 ft 431 kts 352°
2026-05-06 16:09 47.59649 -0.86598 35963 ft 431 kts 348°
2026-05-06 16:09 47.65544 -0.88260 35964 ft 431 kts 348°
2026-05-06 16:10 47.71443 -0.89922 35971 ft 431 kts 348°
2026-05-06 16:10 47.77354 -0.91509 35975 ft 432 kts 349°
2026-05-06 16:11 47.83221 -0.93049 35972 ft 431 kts 349°
2026-05-06 16:11 47.89121 -0.94614 35964 ft 431 kts 349°
2026-05-06 16:12 47.95019 -0.96198 35970 ft 431 kts 348°
2026-05-06 16:12 48.00923 -0.97792 35973 ft 431 kts 348°
2026-05-06 16:13 48.06832 -0.99379 35967 ft 432 kts 349°
2026-05-06 16:13 48.12753 -1.00962 35972 ft 432 kts 349°
2026-05-06 16:14 48.18659 -1.02560 35966 ft 431 kts 348°
2026-05-06 16:14 48.24561 -1.04168 35982 ft 431 kts 348°
2026-05-06 16:15 48.30461 -1.05775 35967 ft 431 kts 348°
2026-05-06 16:15 48.36324 -1.07378 35973 ft 431 kts 348°
2026-05-06 16:16 48.42217 -1.08981 35975 ft 431 kts 348°
2026-05-06 16:16 48.48129 -1.10588 35984 ft 431 kts 349°
2026-05-06 16:17 48.54035 -1.12208 35978 ft 430 kts 348°
2026-05-06 16:17 48.59925 -1.13827 35972 ft 430 kts 348°
2026-05-06 16:18 48.65812 -1.15455 35976 ft 430 kts 348°
2026-05-06 16:18 48.71701 -1.17073 35977 ft 430 kts 349°
2026-05-06 16:19 48.77586 -1.18703 35978 ft 430 kts 348°
2026-05-06 16:19 48.83432 -1.20327 35983 ft 430 kts 348°
2026-05-06 16:20 48.86349 -1.21135 35984 ft 430 kts 348°